time, Switch, Flow(0), Analog(2)
yyyy/mm/dd HH:MM:SS.fff, True=FILTERED|False=TOTAL, L/min, V
2023/06/15 07:00:02.206, True, 4.380, 0.136950
2023/06/15 07:00:02.710, True, 4.643, 0.140078
2023/06/15 07:00:03.214, True, 4.311, 0.138933
2023/06/15 07:00:03.710, True, 4.383, 0.136797
2023/06/15 07:00:04.214, True, 2.319, 0.137789
2023/06/15 07:00:04.718, True, 1.658, 0.136797
2023/06/15 07:00:05.214, True, 0.674, 0.138933
2023/06/15 07:00:05.718, True, 0.663, 0.136873
2023/06/15 07:00:06.221, True, 0.663, 0.138399
2023/06/15 07:00:06.717, True, 0.674, 0.137713
2023/06/15 07:00:07.222, True, 0.663, 0.138170
2023/06/15 07:00:07.726, True, 0.332, 0.139391
2023/06/15 07:00:08.222, True, 0.674, 0.136416
2023/06/15 07:00:08.726, True, 0.332, 0.137789
2023/06/15 07:00:09.230, True, 0.663, 0.139620
2023/06/15 07:00:09.726, True, 0.674, 0.140230
2023/06/15 07:00:10.230, True, 0.332, 0.137789
2023/06/15 07:00:10.734, True, 0.663, 0.138476
2023/06/15 07:00:11.230, True, 0.337, 0.137179
2023/06/15 07:00:11.734, True, 0.664, 0.139239
2023/06/15 07:00:12.238, True, 0.331, 0.141222
2023/06/15 07:00:12.734, True, 0.675, 0.137942
2023/06/15 07:00:13.238, True, 0.662, 0.139925
2023/06/15 07:00:13.742, True, 0.332, 0.135729
2023/06/15 07:00:14.238, True, 0.675, 0.138399
2023/06/15 07:00:14.742, True, 0.331, 0.139086
2023/06/15 07:00:15.246, True, 0.663, 0.138552
2023/06/15 07:00:15.742, True, 0.337, 0.137636
2023/06/15 07:00:16.246, True, 0.663, 0.139086
2023/06/15 07:00:16.742, True, 0.337, 0.137942
2023/06/15 07:00:17.246, True, 0.663, 0.138781
2023/06/15 07:00:17.750, True, 0.332, 0.136721
2023/06/15 07:00:18.254, True, 0.663, 0.137179
2023/06/15 07:00:18.750, True, 0.337, 0.137789
2023/06/15 07:00:19.254, True, 0.664, 0.136797
2023/06/15 07:00:19.758, True, 0.332, 0.137179
2023/06/15 07:00:20.254, True, 0.673, 0.136568
2023/06/15 07:00:20.757, True, 0.332, 0.137484
2023/06/15 07:00:21.262, True, 0.663, 0.137407
2023/06/15 07:00:21.758, True, 0.337, 0.134661
2023/06/15 07:00:22.262, True, 0.663, 0.135958
2023/06/15 07:00:22.758, True, 0.337, 0.136492
2023/06/15 07:00:23.262, True, 0.663, 0.136645
2023/06/15 07:00:23.766, True, 0.663, 0.138476
2023/06/15 07:00:24.270, True, 0.332, 0.137026
2023/06/15 07:00:24.766, True, 0.673, 0.137255
2023/06/15 07:00:25.269, True, 0.332, 0.138323
2023/06/15 07:00:25.774, True, 0.663, 0.138857
2023/06/15 07:00:26.269, True, 0.337, 0.138094
2023/06/15 07:00:26.774, True, 0.663, 0.137560
2023/06/15 07:00:27.278, True, 0.332, 0.137484
2023/06/15 07:00:27.774, True, 0.673, 0.137331
2023/06/15 07:00:28.278, True, 0.332, 0.137865
2023/06/15 07:00:28.782, True, 0.663, 0.138170
2023/06/15 07:00:29.277, True, 0.337, 0.136492
2023/06/15 07:00:29.782, True, 0.662, 0.137865
2023/06/15 07:00:30.286, True, 0.332, 0.139086
2023/06/15 07:00:30.782, True, 0.674, 0.137713
2023/06/15 07:00:31.286, True, 0.332, 0.136645
2023/06/15 07:00:31.790, True, 0.663, 0.136950
2023/06/15 07:00:32.286, True, 0.674, 0.138476
2023/06/15 07:00:32.790, True, 0.332, 0.137713
2023/06/15 07:00:33.294, True, 0.664, 0.138857
2023/06/15 07:00:33.790, True, 0.337, 0.136645
2023/06/15 07:00:34.293, True, 0.664, 0.139620
2023/06/15 07:00:34.798, True, 0.331, 0.137484
2023/06/15 07:00:35.301, True, 0.663, 0.137713
2023/06/15 07:00:35.797, True, 0.337, 0.136339
2023/06/15 07:00:36.302, True, 0.664, 0.140002
2023/06/15 07:00:36.798, True, 0.337, 0.136721
2023/06/15 07:00:37.301, True, 0.663, 0.136263
2023/06/15 07:00:37.805, True, 0.332, 0.137484
2023/06/15 07:00:38.302, True, 0.673, 0.136873
2023/06/15 07:00:38.805, True, 0.663, 0.138094
2023/06/15 07:00:39.310, True, 0.332, 0.138705
2023/06/15 07:00:39.806, True, 0.674, 0.137942
2023/06/15 07:00:40.310, True, 0.331, 0.137636
2023/06/15 07:00:40.806, True, 0.674, 0.138705
2023/06/15 07:00:41.310, True, 0.331, 0.136339
2023/06/15 07:00:41.813, True, 0.663, 0.140307
2023/06/15 07:00:42.309, True, 0.337, 0.136873
2023/06/15 07:00:42.814, True, 0.663, 0.137789
2023/06/15 07:00:43.317, True, 0.332, 0.136873
2023/06/15 07:00:43.814, True, 0.337, 0.135348
2023/06/15 07:00:44.318, True, 0.663, 0.137560
2023/06/15 07:00:44.822, True, 0.332, 0.136568
2023/06/15 07:00:45.318, True, 0.674, 0.139086
2023/06/15 07:00:45.821, True, 0.332, 0.139086
2023/06/15 07:00:46.325, True, 0.662, 0.136568
2023/06/15 07:00:46.822, True, 0.337, 0.136187
2023/06/15 07:00:47.326, True, 0.663, 0.137179
2023/06/15 07:00:47.830, True, 0.332, 0.139162
2023/06/15 07:00:48.326, True, 0.674, 0.136034
2023/06/15 07:00:48.830, True, 0.332, 0.138247
2023/06/15 07:00:49.334, True, 0.663, 0.138628
2023/06/15 07:00:49.830, True, 0.337, 0.138399
2023/06/15 07:00:50.333, True, 0.664, 0.139315
2023/06/15 07:00:50.838, True, 0.331, 0.137713
2023/06/15 07:00:51.334, True, 0.674, 0.137179
2023/06/15 07:00:51.838, True, 0.332, 0.136873
2023/06/15 07:00:52.342, True, 0.663, 0.139391
2023/06/15 07:00:52.838, True, 0.337, 0.135271
2023/06/15 07:00:53.342, True, 0.664, 0.137560
2023/06/15 07:00:53.846, True, 0.332, 0.136721
2023/06/15 07:00:54.342, True, 0.673, 0.137026
2023/06/15 07:00:54.846, True, 0.332, 0.136873
2023/06/15 07:00:55.350, True, 0.663, 0.137713
2023/06/15 07:00:55.846, True, 0.337, 0.138170
2023/06/15 07:00:56.350, True, 0.663, 0.137179
2023/06/15 07:00:56.854, True, 0.663, 0.137789
2023/06/15 07:00:57.350, True, 0.337, 0.137789
2023/06/15 07:00:57.853, True, 0.332, 0.137484
2023/06/15 07:00:58.358, True, 0.664, 0.138399
2023/06/15 07:00:58.854, True, 0.337, 0.138476
2023/06/15 07:00:59.358, True, 0.664, 0.137484
2023/06/15 07:00:59.862, True, 0.331, 0.137407
2023/06/15 07:01:00.357, True, 0.674, 0.136950
2023/06/15 07:01:00.862, True, 0.332, 0.137865
2023/06/15 07:01:01.366, True, 0.663, 0.137407
2023/06/15 07:01:01.862, True, 0.337, 0.138628
2023/06/15 07:01:02.366, True, 0.663, 0.137789
2023/06/15 07:01:02.869, True, 0.332, 0.137407
2023/06/15 07:01:03.366, True, 0.337, 0.139162
2023/06/15 07:01:03.870, True, 0.665, 0.136721
2023/06/15 07:01:04.374, True, 0.331, 0.137407
2023/06/15 07:01:04.870, True, 0.674, 0.138323
2023/06/15 07:01:05.374, True, 0.332, 0.136873
2023/06/15 07:01:05.877, True, 0.663, 0.138170
2023/06/15 07:01:06.374, True, 0.337, 0.138476
2023/06/15 07:01:06.878, True, 0.332, 0.140383
2023/06/15 07:01:07.374, True, 0.674, 0.136950
2023/06/15 07:01:07.877, True, 0.663, 0.137560
2023/06/15 07:01:08.381, True, 0.332, 0.137560
2023/06/15 07:01:08.878, True, 0.674, 0.136187
2023/06/15 07:01:09.381, True, 0.332, 0.137407
2023/06/15 07:01:09.886, True, 0.332, 0.138552
2023/06/15 07:01:10.389, True, 0.663, 0.137942
2023/06/15 07:01:10.885, True, 0.675, 0.135882
2023/06/15 07:01:11.390, True, 0.331, 0.137484
2023/06/15 07:01:11.894, True, 0.332, 0.139467
2023/06/15 07:01:12.390, True, 0.674, 0.138247
2023/06/15 07:01:12.893, True, 0.332, 0.139620
2023/06/15 07:01:13.398, True, 0.663, 0.138323
2023/06/15 07:01:13.894, True, 0.337, 0.137789
2023/06/15 07:01:14.397, True, 0.663, 0.139086
2023/06/15 07:01:14.901, True, 0.332, 0.138094
2023/06/15 07:01:15.398, True, 0.674, 0.139315
2023/06/15 07:01:15.902, True, 0.332, 0.137942
2023/06/15 07:01:16.405, True, 0.662, 0.136110
2023/06/15 07:01:16.901, True, 0.337, 0.139849
2023/06/15 07:01:17.406, True, 0.664, 0.138552
2023/06/15 07:01:17.909, True, 0.332, 0.138247
2023/06/15 07:01:18.413, True, 0.663, 0.139544
2023/06/15 07:01:18.909, True, 0.337, 0.140154
2023/06/15 07:01:19.413, True, 0.332, 0.138094
2023/06/15 07:01:19.917, True, 0.662, 0.139849
2023/06/15 07:01:20.414, True, 0.675, 0.141146
2023/06/15 07:01:20.917, True, 0.331, 0.138781
2023/06/15 07:01:21.422, True, 0.664, 0.137331
2023/06/15 07:01:21.925, True, 0.331, 0.137255
2023/06/15 07:01:22.422, True, 0.674, 0.142672
2023/06/15 07:01:22.926, True, 0.332, 0.137026
2023/06/15 07:01:23.430, True, 0.662, 0.140078
2023/06/15 07:01:23.925, True, 0.337, 0.137026
2023/06/15 07:01:24.430, True, 0.332, 0.139086
2023/06/15 07:01:24.933, True, 0.663, 0.136873
2023/06/15 07:01:25.430, True, 0.337, 0.139773
2023/06/15 07:01:25.934, True, 0.663, 0.135271
2023/06/15 07:01:26.437, True, 0.332, 0.139696
2023/06/15 07:01:26.934, True, 0.674, 0.137331
2023/06/15 07:01:27.438, True, 0.332, 0.137026
2023/06/15 07:01:27.942, True, 0.663, 0.140307
2023/06/15 07:01:28.438, True, 0.337, 0.138628
2023/06/15 07:01:28.941, True, 0.663, 0.137179
2023/06/15 07:01:29.446, True, 0.332, 0.138628
2023/06/15 07:01:29.942, True, 0.674, 0.138094
2023/06/15 07:01:30.446, True, 0.332, 0.135424
2023/06/15 07:01:30.950, True, 0.663, 0.137942
2023/06/15 07:01:31.446, True, 0.337, 0.138170
2023/06/15 07:01:31.950, True, 0.332, 0.139467
2023/06/15 07:01:32.454, True, 0.663, 0.137255
2023/06/15 07:01:32.950, True, 0.337, 0.138247
2023/06/15 07:01:33.454, True, 0.663, 0.138018
2023/06/15 07:01:33.958, True, 0.332, 0.137407
2023/06/15 07:01:34.454, True, 0.674, 0.136110
2023/06/15 07:01:34.958, True, 0.663, 0.137331
2023/06/15 07:01:35.462, True, 0.331, 0.138018
2023/06/15 07:01:35.958, True, 0.337, 0.139162
2023/06/15 07:01:36.462, True, 0.663, 0.138170
2023/06/15 07:01:36.957, True, 0.337, 0.137636
2023/06/15 07:01:37.461, True, 0.663, 0.138705
2023/06/15 07:01:37.965, True, 0.332, 0.139391
2023/06/15 07:01:38.470, True, 0.664, 0.139696
2023/06/15 07:01:38.966, True, 0.337, 0.137942
2023/06/15 07:01:39.470, True, 0.663, 0.140612
2023/06/15 07:01:39.974, True, 0.331, 0.137713
2023/06/15 07:01:40.470, True, 0.337, 0.137789
2023/06/15 07:01:40.973, True, 0.663, 0.139773
2023/06/15 07:01:41.478, True, 0.332, 0.138628
2023/06/15 07:01:41.973, True, 0.674, 0.138857
2023/06/15 07:01:42.478, True, 0.332, 0.138170
2023/06/15 07:01:42.974, True, 0.674, 0.138552
2023/06/15 07:01:43.478, True, 0.332, 0.139086
2023/06/15 07:01:43.982, True, 0.663, 0.137942
2023/06/15 07:01:44.486, True, 0.332, 0.136950
2023/06/15 07:01:44.982, True, 0.674, 0.137026
2023/06/15 07:01:45.486, True, 0.332, 0.136187
2023/06/15 07:01:45.982, True, 0.673, 0.139696
2023/06/15 07:01:46.486, True, 0.332, 0.139696
2023/06/15 07:01:46.990, True, 0.663, 0.137179
2023/06/15 07:01:47.486, True, 0.337, 0.138705
2023/06/15 07:01:47.990, True, 0.332, 0.139391
2023/06/15 07:01:48.494, True, 0.663, 0.140307
2023/06/15 07:01:48.990, True, 0.337, 0.139620
2023/06/15 07:01:49.494, True, 0.663, 0.137560
2023/06/15 07:01:49.998, True, 0.332, 0.139010
2023/06/15 07:01:50.494, True, 0.674, 0.138705
2023/06/15 07:01:50.998, True, 0.332, 0.140536
2023/06/15 07:01:51.494, True, 0.674, 0.139925
2023/06/15 07:01:51.998, True, 0.332, 0.137713
2023/06/15 07:01:52.502, True, 0.663, 0.140536
2023/06/15 07:01:52.998, True, 0.337, 0.139162
2023/06/15 07:01:53.502, True, 0.663, 0.140078
2023/06/15 07:01:54.006, True, 0.332, 0.139467
2023/06/15 07:01:54.502, True, 0.337, 0.139773
2023/06/15 07:01:55.006, True, 0.664, 0.139925
2023/06/15 07:01:55.510, True, 0.331, 0.138094
2023/06/15 07:01:56.005, True, 0.674, 0.140459
2023/06/15 07:01:56.510, True, 0.332, 0.140917
2023/06/15 07:01:57.013, True, 0.663, 0.142138
2023/06/15 07:01:57.509, True, 0.337, 0.140307
2023/06/15 07:01:58.014, True, 0.663, 0.140078
2023/06/15 07:01:58.518, True, 0.332, 0.142214
2023/06/15 07:01:59.013, True, 0.674, 0.141527
2023/06/15 07:01:59.518, True, 0.332, 0.139010
2023/06/15 07:02:00.013, True, 0.674, 0.140917
2023/06/15 07:02:00.518, True, 0.332, 0.142214
2023/06/15 07:02:01.022, True, 0.663, 0.143282
2023/06/15 07:02:01.526, True, 0.332, 0.141070
2023/06/15 07:02:02.021, True, 0.674, 0.141451
2023/06/15 07:02:02.525, True, 0.331, 0.142519
2023/06/15 07:02:03.022, True, 0.337, 0.142138
2023/06/15 07:02:03.525, True, 0.663, 0.141680
2023/06/15 07:02:04.030, True, 0.332, 0.142443
2023/06/15 07:02:04.526, True, 0.674, 0.143664
2023/06/15 07:02:05.029, True, 0.332, 0.142443
2023/06/15 07:02:05.534, True, 0.665, 0.142977
2023/06/15 07:02:06.029, True, 0.337, 0.142519
2023/06/15 07:02:06.533, True, 0.662, 0.144350
2023/06/15 07:02:07.030, True, 0.337, 0.143435
2023/06/15 07:02:07.533, True, 0.332, 0.144045
2023/06/15 07:02:08.038, True, 0.664, 0.143893
2023/06/15 07:02:08.534, True, 0.336, 0.144732
2023/06/15 07:02:09.037, True, 0.663, 0.143130
2023/06/15 07:02:09.541, True, 0.332, 0.144274
2023/06/15 07:02:10.037, True, 0.674, 0.143816
2023/06/15 07:02:10.541, True, 0.332, 0.143816
2023/06/15 07:02:11.046, True, 0.662, 0.145113
2023/06/15 07:02:11.549, True, 0.331, 0.145647
2023/06/15 07:02:12.046, True, 0.674, 0.144732
2023/06/15 07:02:12.549, True, 0.332, 0.146105
2023/06/15 07:02:13.054, True, 0.663, 0.145571
2023/06/15 07:02:13.549, True, 0.337, 0.145342
2023/06/15 07:02:14.053, True, 0.663, 0.145571
2023/06/15 07:02:14.558, True, 0.332, 0.146715
2023/06/15 07:02:15.053, True, 0.337, 0.146868
2023/06/15 07:02:15.558, True, 0.663, 0.144503
2023/06/15 07:02:16.061, True, 0.663, 0.146639
2023/06/15 07:02:16.557, True, 0.337, 0.145495
2023/06/15 07:02:17.062, True, 0.332, 0.145953
2023/06/15 07:02:17.565, True, 0.663, 0.145495
2023/06/15 07:02:18.061, True, 0.337, 0.146258
2023/06/15 07:02:18.565, True, 0.662, 0.147021
2023/06/15 07:02:19.069, True, 0.332, 0.146487
2023/06/15 07:02:19.565, True, 0.674, 0.147555
2023/06/15 07:02:20.069, True, 0.332, 0.146487
2023/06/15 07:02:20.573, True, 0.332, 0.146944
2023/06/15 07:02:21.070, True, 0.674, 0.146181
2023/06/15 07:02:21.573, True, 0.663, 0.146487
2023/06/15 07:02:22.069, True, 0.337, 0.145113
2023/06/15 07:02:22.574, True, 0.332, 0.148013
2023/06/15 07:02:23.077, True, 0.663, 0.148470
2023/06/15 07:02:23.573, True, 0.337, 0.148089
2023/06/15 07:02:24.077, True, 0.663, 0.148470
2023/06/15 07:02:24.581, True, 0.332, 0.146792
2023/06/15 07:02:25.077, True, 0.674, 0.147097
2023/06/15 07:02:25.582, True, 0.332, 0.146258
2023/06/15 07:02:26.085, True, 0.332, 0.149615
2023/06/15 07:02:26.582, True, 0.674, 0.148547
2023/06/15 07:02:27.086, True, 0.332, 0.146944
2023/06/15 07:02:27.590, True, 0.663, 0.147555
2023/06/15 07:02:28.086, True, 0.337, 0.148928
2023/06/15 07:02:28.590, True, 0.663, 0.145953
2023/06/15 07:02:29.093, True, 0.332, 0.146715
2023/06/15 07:02:29.590, True, 0.674, 0.147860
2023/06/15 07:02:30.094, True, 0.332, 0.149615
2023/06/15 07:02:30.597, True, 0.663, 0.147250
2023/06/15 07:02:31.102, True, 0.332, 0.148165
2023/06/15 07:02:31.597, True, 0.674, 0.147021
2023/06/15 07:02:32.101, True, 0.331, 0.147402
2023/06/15 07:02:32.598, True, 0.674, 0.147631
2023/06/15 07:02:33.102, True, 0.332, 0.148165
2023/06/15 07:02:33.605, True, 0.332, 0.148089
2023/06/15 07:02:34.101, True, 0.674, 0.146029
2023/06/15 07:02:34.606, True, 0.332, 0.148928
2023/06/15 07:02:35.109, True, 0.663, 0.148928
2023/06/15 07:02:35.605, True, 0.337, 0.144961
2023/06/15 07:02:36.109, True, 0.663, 0.147784
2023/06/15 07:02:36.614, True, 0.332, 0.148394
2023/06/15 07:02:37.110, True, 0.337, 0.147707
2023/06/15 07:02:37.613, True, 0.663, 0.146639
2023/06/15 07:02:38.118, True, 0.332, 0.146487
2023/06/15 07:02:38.613, True, 0.674, 0.148318
2023/06/15 07:02:39.117, True, 0.332, 0.148165
2023/06/15 07:02:39.622, True, 0.663, 0.146715
2023/06/15 07:02:40.118, True, 0.337, 0.149081
2023/06/15 07:02:40.621, True, 0.331, 0.147784
2023/06/15 07:02:41.126, True, 0.663, 0.145800
2023/06/15 07:02:41.621, True, 0.337, 0.147784
2023/06/15 07:02:42.126, True, 0.663, 0.148775
2023/06/15 07:02:42.629, True, 0.332, 0.146181
2023/06/15 07:02:43.126, True, 0.337, 0.150225
2023/06/15 07:02:43.629, True, 0.663, 0.149081
2023/06/15 07:02:44.132, True, 0.332, 0.149004
2023/06/15 07:02:44.629, True, 0.674, 0.147860
2023/06/15 07:02:45.133, True, 0.332, 0.148013
2023/06/15 07:02:45.629, True, 0.674, 0.147250
2023/06/15 07:02:46.132, True, 0.331, 0.149081
2023/06/15 07:02:46.637, True, 0.332, 0.147326
2023/06/15 07:02:47.133, True, 0.674, 0.149538
2023/06/15 07:02:47.637, True, 0.332, 0.148775
2023/06/15 07:02:48.141, True, 0.331, 0.145724
2023/06/15 07:02:48.637, True, 0.674, 0.147173
2023/06/15 07:02:49.141, True, 0.332, 0.150225
2023/06/15 07:02:49.637, True, 0.674, 0.148852
2023/06/15 07:02:50.141, True, 0.331, 0.148623
2023/06/15 07:02:50.645, True, 0.664, 0.147936
2023/06/15 07:02:51.141, True, 0.337, 0.147173
2023/06/15 07:02:51.645, True, 0.331, 0.151369
2023/06/15 07:02:52.148, True, 0.664, 0.147631
2023/06/15 07:02:52.645, True, 0.337, 0.146181
2023/06/15 07:02:53.149, True, 0.663, 0.150149
2023/06/15 07:02:53.653, True, 0.332, 0.149691
2023/06/15 07:02:54.149, True, 0.674, 0.147021
2023/06/15 07:02:54.653, True, 0.332, 0.146181
2023/06/15 07:02:55.149, True, 0.337, 0.149310
2023/06/15 07:02:55.653, True, 0.664, 0.148928
2023/06/15 07:02:56.157, True, 0.332, 0.148318
2023/06/15 07:02:56.653, True, 0.674, 0.147478
2023/06/15 07:02:57.157, True, 0.332, 0.148699
2023/06/15 07:02:57.661, True, 0.332, 0.147402
2023/06/15 07:02:58.157, True, 0.674, 0.149462
2023/06/15 07:02:58.661, True, 0.331, 0.148318
2023/06/15 07:02:59.165, True, 0.332, 0.145495
2023/06/15 07:02:59.669, True, 0.663, 0.147936
2023/06/15 07:03:00.165, True, 0.337, 0.146258
2023/06/15 07:03:00.669, True, 0.662, 0.145571
2023/06/15 07:03:01.173, True, 0.332, 0.148089
2023/06/15 07:03:01.669, True, 0.673, 0.149157
2023/06/15 07:03:02.173, True, 0.331, 0.147631
2023/06/15 07:03:02.677, True, 0.332, 0.147631
2023/06/15 07:03:03.173, True, 0.675, 0.147936
2023/06/15 07:03:03.677, True, 0.331, 0.148623
2023/06/15 07:03:04.181, True, 0.664, 0.147326
2023/06/15 07:03:04.677, True, 0.336, 0.145113
2023/06/15 07:03:05.181, True, 0.664, 0.147326
2023/06/15 07:03:05.685, True, 0.331, 0.148775
2023/06/15 07:03:06.181, True, 0.674, 0.149310
2023/06/15 07:03:06.685, True, 0.331, 0.148775
2023/06/15 07:03:07.189, True, 0.663, 0.148241
2023/06/15 07:03:07.685, True, 0.337, 0.149615
2023/06/15 07:03:08.189, True, 0.664, 0.148852
2023/06/15 07:03:08.693, True, 0.331, 0.149691
2023/06/15 07:03:09.189, True, 0.673, 0.151369
2023/06/15 07:03:09.693, True, 0.332, 0.148318
2023/06/15 07:03:10.197, True, 0.332, 0.149004
2023/06/15 07:03:10.693, True, 0.674, 0.147326
2023/06/15 07:03:11.197, True, 0.332, 0.147173
2023/06/15 07:03:11.693, True, 0.674, 0.147707
2023/06/15 07:03:12.197, True, 0.332, 0.146715
2023/06/15 07:03:12.701, True, 0.332, 0.146258
2023/06/15 07:03:13.197, True, 0.675, 0.147631
2023/06/15 07:03:13.701, True, 0.331, 0.147631
2023/06/15 07:03:14.205, True, 0.663, 0.147250
2023/06/15 07:03:14.701, True, 0.337, 0.146715
2023/06/15 07:03:15.205, True, 0.663, 0.148852
2023/06/15 07:03:15.709, True, 0.332, 0.149691
2023/06/15 07:03:16.213, True, 0.663, 0.148928
2023/06/15 07:03:16.709, True, 0.337, 0.147478
2023/06/15 07:03:17.213, True, 0.332, 0.147250
2023/06/15 07:03:17.717, True, 0.663, 0.149310
2023/06/15 07:03:18.213, True, 0.337, 0.149920
2023/06/15 07:03:18.717, True, 0.332, 0.148852
2023/06/15 07:03:19.221, True, 0.663, 0.148623
2023/06/15 07:03:19.717, True, 0.337, 0.148928
2023/06/15 07:03:20.221, True, 0.663, 0.148394
2023/06/15 07:03:20.725, True, 0.332, 0.148318
2023/06/15 07:03:21.221, True, 0.337, 0.146258
2023/06/15 07:03:21.725, True, 0.665, 0.150530
2023/06/15 07:03:22.221, True, 0.336, 0.147936
2023/06/15 07:03:22.725, True, 0.663, 0.145647
2023/06/15 07:03:23.229, True, 0.332, 0.147936
2023/06/15 07:03:23.725, True, 0.337, 0.147021
2023/06/15 07:03:24.229, True, 0.663, 0.147631
2023/06/15 07:03:24.733, True, 0.332, 0.147402
2023/06/15 07:03:25.229, True, 0.674, 0.149767
2023/06/15 07:03:25.733, True, 0.332, 0.146105
2023/06/15 07:03:26.237, True, 0.664, 0.149920
2023/06/15 07:03:26.733, True, 0.337, 0.148699
2023/06/15 07:03:27.236, True, 0.663, 0.147173
2023/06/15 07:03:27.741, True, 0.332, 0.147326
2023/06/15 07:03:28.237, True, 0.337, 0.147326
2023/06/15 07:03:28.741, True, 0.663, 0.148241
2023/06/15 07:03:29.245, True, 0.332, 0.149081
2023/06/15 07:03:29.741, True, 0.674, 0.149310
2023/06/15 07:03:30.245, True, 0.332, 0.148013
2023/06/15 07:03:30.749, True, 0.663, 0.147478
2023/06/15 07:03:31.245, True, 0.337, 0.148241
2023/06/15 07:03:31.749, True, 0.663, 0.147784
2023/06/15 07:03:32.245, True, 0.337, 0.147402
2023/06/15 07:03:32.749, True, 0.332, 0.147555
2023/06/15 07:03:33.253, True, 0.664, 0.147478
2023/06/15 07:03:33.749, True, 0.337, 0.148318
2023/06/15 07:03:34.253, True, 0.332, 0.148699
2023/06/15 07:03:34.757, True, 0.663, 0.147784
2023/06/15 07:03:35.261, True, 0.332, 0.149081
2023/06/15 07:03:35.757, True, 0.673, 0.146944
2023/06/15 07:03:36.261, True, 0.332, 0.149233
2023/06/15 07:03:36.765, True, 0.662, 0.148089
2023/06/15 07:03:37.261, True, 0.337, 0.148852
2023/06/15 07:03:37.765, True, 0.332, 0.151064
2023/06/15 07:03:38.269, True, 0.663, 0.148928
2023/06/15 07:03:38.765, True, 0.337, 0.148089
2023/06/15 07:03:39.269, True, 0.663, 0.149310
2023/06/15 07:03:39.773, True, 0.331, 0.149310
2023/06/15 07:03:40.269, True, 0.674, 0.148852
2023/06/15 07:03:40.773, True, 0.332, 0.148394
2023/06/15 07:03:41.277, True, 0.332, 0.148928
2023/06/15 07:03:41.781, True, 0.664, 0.149615
2023/06/15 07:03:42.277, True, 0.336, 0.150225
2023/06/15 07:03:42.781, True, 0.663, 0.147631
2023/06/15 07:03:43.277, True, 0.337, 0.148928
2023/06/15 07:03:43.781, True, 0.664, 0.149615
2023/06/15 07:03:44.285, True, 0.331, 0.148394
2023/06/15 07:03:44.789, True, 0.332, 0.148394
2023/06/15 07:03:45.285, True, 0.674, 0.149386
2023/06/15 07:03:45.789, True, 0.332, 0.147936
2023/06/15 07:03:46.293, True, 0.663, 0.149081
2023/06/15 07:03:46.789, True, 0.337, 0.146715
2023/06/15 07:03:47.293, True, 0.332, 0.146715
2023/06/15 07:03:47.797, True, 0.663, 0.150454
2023/06/15 07:03:48.293, True, 0.337, 0.148394
2023/06/15 07:03:48.797, True, 0.663, 0.147478
2023/06/15 07:03:49.301, True, 0.332, 0.148699
2023/06/15 07:03:49.797, True, 0.337, 0.147097
2023/06/15 07:03:50.301, True, 0.663, 0.149615
2023/06/15 07:03:50.797, True, 0.337, 0.148852
2023/06/15 07:03:51.301, True, 0.332, 0.145647
2023/06/15 07:03:51.805, True, 0.663, 0.147631
2023/06/15 07:03:52.309, True, 0.332, 0.149844
2023/06/15 07:03:52.805, True, 0.674, 0.147326
2023/06/15 07:03:53.309, True, 0.332, 0.148547
2023/06/15 07:03:53.813, True, 0.332, 0.148470
2023/06/15 07:03:54.309, True, 0.674, 0.147326
2023/06/15 07:03:54.813, True, 0.332, 0.150301
2023/06/15 07:03:55.317, True, 0.332, 0.150988
2023/06/15 07:03:55.813, True, 0.674, 0.148623
2023/06/15 07:03:56.317, True, 0.331, 0.147936
2023/06/15 07:03:56.820, True, 0.663, 0.148394
2023/06/15 07:03:57.317, True, 0.337, 0.146792
2023/06/15 07:03:57.821, True, 0.663, 0.147707
2023/06/15 07:03:58.325, True, 0.332, 0.148699
2023/06/15 07:03:58.821, True, 0.337, 0.149004
2023/06/15 07:03:59.325, True, 0.663, 0.149081
2023/06/15 07:03:59.829, True, 0.332, 0.149615
2023/06/15 07:04:00.325, True, 0.674, 0.150378
2023/06/15 07:04:00.829, True, 0.332, 0.148013
2023/06/15 07:04:01.333, True, 0.332, 0.147631
2023/06/15 07:04:01.829, True, 0.674, 0.148699
2023/06/15 07:04:02.333, True, 0.332, 0.149538
2023/06/15 07:04:02.837, True, 0.663, 0.146944
2023/06/15 07:04:03.333, True, 0.337, 0.148547
2023/06/15 07:04:03.837, True, 0.332, 0.150149
2023/06/15 07:04:04.341, True, 0.663, 0.148547
2023/06/15 07:04:04.837, True, 0.337, 0.147707
2023/06/15 07:04:05.341, True, 0.332, 0.148699
2023/06/15 07:04:05.845, True, 0.663, 0.149233
2023/06/15 07:04:06.349, True, 0.332, 0.148928
2023/06/15 07:04:06.845, True, 0.674, 0.146258
2023/06/15 07:04:07.349, True, 0.332, 0.148318
2023/06/15 07:04:07.853, True, 0.331, 0.147631
2023/06/15 07:04:08.349, True, 0.674, 0.149767
2023/06/15 07:04:08.853, True, 0.332, 0.149615
2023/06/15 07:04:09.357, True, 0.663, 0.146868
2023/06/15 07:04:09.853, True, 0.337, 0.148699
2023/06/15 07:04:10.357, True, 0.332, 0.147707
2023/06/15 07:04:10.861, True, 0.663, 0.150149
2023/06/15 07:04:11.357, True, 0.337, 0.147707